RH
11 11 12 14 13 19 18 14 14 13 16 18 20 21 25 26 27 36 43 43 42 42 42 40 42 46 47 40 25 24 20 20 21 23 23 21 24 22 21 15 9 7 5 5 4 5 7 13 14
12 12 13 15 22 20 14 15 14 15 16 17 18 19 21 26 29 30 33 38 42 43 42 40 36 39 42 45 33 25 26 24 23 20 19 24 23 22 19 14 10 7 5 4 4 5 7 9 11
15 15 15 18 22 20 16 13 14 14 15 15 16 17 18 25 29 27 26 28 32 40 43 40 36 36 37 44 44 34 30 26 26 26 22 23 22 21 19 13 10 6 5 4 4 5 7 8 9
17 17 18 23 21 16 14 13 14 15 15 14 14 15 16 20 26 25 24 24 27 32 35 40 37 34 38 40 44 44 35 29 33 29 24 22 21 19 12 10 8 6 5 5 5 5 6 9 10
18 18 22 22 20 17 14 14 14 15 15 15 15 14 15 18 20 20 20 25 26 26 34 37 40 38 37 41 41 46 44 39 40 30 26 21 19 13 9 7 6 6 5 5 5 5 7 9 10
19 19 21 21 18 15 14 13 15 16 16 16 16 15 15 16 18 18 17 16 20 28 28 35 38 45 41 43 42 42 43 46 44 34 26 16 12 10 9 7 6 6 6 5 6 6 8 8 11
21 22 23 21 19 18 15 15 16 16 17 17 16 17 16 17 18 20 23 24 24 25 27 30 33 40 49 49 47 42 40 45 46 39 28 18 12 9 8 6 6 6 7 6 6 7 7 9 12
22 25 26 25 23 18 15 15 15 16 17 16 17 16 16 16 17 18 19 21 23 28 26 24 29 36 50 53 52 47 42 44 45 44 36 24 13 9 8 6 7 9 7 6 7 7 8 10 12
24 28 28 22 22 16 16 17 18 18 18 17 17 16 16 16 17 18 19 19 19 21 28 31 36 37 41 58 69 67 50 44 50 49 44 34 18 9 8 7 7 10 7 7 8 10 11 12 13
26 29 22 18 17 18 18 20 20 20 20 19 17 16 17 17 18 19 19 19 18 18 18 22 27 32 37 50 74 84 80 59 51 54 48 40 28 12 8 7 7 9 7 8 11 15 14 14 14
27 24 19 17 17 19 21 21 22 22 22 19 17 16 17 17 18 19 20 21 20 18 18 19 21 26 32 39 57 78 85 82 66 58 54 50 39 18 9 8 7 8 8 9 15 16 16 15 14
27 23 21 19 19 21 21 21 21 21 18 19 18 17 17 18 18 18 19 21 21 20 19 20 21 24 27 33 44 66 76 84 80 67 59 54 48 27 12 8 7 7 8 10 14 16 16 15 15
30 25 24 22 22 23 23 23 23 20 16 17 17 17 17 18 18 18 18 20 23 22 22 20 20 21 25 29 35 47 72 87 88 82 73 56 55 35 18 10 8 8 8 10 16 16 16 17 19
29 29 28 27 26 26 26 22 23 16 16 16 15 16 17 17 18 19 19 19 21 23 22 22 21 21 24 24 30 40 66 74 89 86 84 69 56 43 24 12 9 8 8 11 17 17 19 20 22
32 32 29 27 25 26 25 26 23 13 16 17 19 18 16 15 17 18 18 19 19 20 21 22 23 22 23 24 25 32 51 67 79 97 87 80 64 51 28 14 11 9 9 12 20 21 23 24 26
37 36 37 22 25 25 25 22 18 15 19 20 20 20 20 17 16 17 18 19 20 21 21 22 22 23 23 23 24 24 35 55 80 95 91 87 76 57 30 18 11 10 10 12 21 24 25 27 29
46 39 40 33 28 28 32 30 24 24 24 23 22 21 20 18 17 17 18 18 19 20 23 22 22 22 23 25 26 27 28 33 55 71 93 94 87 64 32 21 13 11 13 17 20 24 25 28 30
48 54 50 39 32 34 36 36 33 27 26 25 22 23 21 18 17 17 18 17 19 21 22 22 22 24 26 28 30 30 31 33 40 67 80 96 91 72 35 23 16 13 16 18 20 25 27 28 30
35 39 39 38 32 33 30 27 28 25 24 24 22 25 21 18 16 15 15 16 16 20 22 22 24 27 32 38 38 40 41 42 39 49 71 89 95 79 41 26 18 15 14 18 18 24 28 30 30
44 46 44 40 33 35 33 31 33 31 23 22 26 25 21 18 15 13 15 14 15 18 21 24 28 32 43 53 53 54 46 45 43 46 61 78 95 82 44 27 21 18 15 19 19 22 27 30 29
47 48 48 45 36 32 34 27 27 23 22 22 23 22 20 16 12 14 13 14 15 19 23 27 33 42 66 77 86 93 88 82 54 53 59 69 91 78 47 28 23 19 15 17 18 21 24 26 29
52 47 47 48 49 55 36 44 32 22 18 18 20 19 18 17 16 14 15 16 17 21 25 29 37 48 73 88 95 96 97 72 67 47 41 76 92 68 43 28 23 19 16 17 17 21 24 24 25
50 45 50 60 59 56 48 54 35 22 16 15 18 18 19 18 15 16 17 18 21 24 27 29 38 58 81 91 97 99 99 71 60 57 48 83 91 57 41 31 26 23 19 18 18 20 22 23 23
63 59 59 76 70 71 52 51 41 23 24 25 24 24 22 20 19 19 19 20 24 27 29 34 39 58 80 96 98 99 95 85 56 60 66 75 84 48 38 31 27 24 19 19 18 19 21 21 22
76 79 79 84 80 67 54 54 39 32 32 31 32 32 29 26 23 21 22 21 24 29 31 37 40 64 81 95 97 98 93 91 79 68 77 87 68 42 33 28 26 23 19 19 19 20 21 21 22
80 81 73 75 76 64 56 55 42 40 35 31 31 30 29 28 28 29 28 26 25 30 34 40 40 64 87 94 99 99 97 90 90 80 84 82 53 37 30 27 25 24 21 20 21 21 22 23 25
80 90 70 71 64 67 61 49 44 43 38 37 31 32 32 32 31 31 32 37 34 36 42 46 41 54 82 92 98 99 99 96 93 98 92 56 45 38 31 28 25 24 22 22 22 23 23 25 26
87 91 95 96 88 75 56 47 63 47 42 37 35 33 34 35 34 31 32 34 42 43 44 50 52 47 68 90 98 98 98 98 91 80 61 50 48 39 32 30 28 26 23 23 24 24 25 26 28
82 84 90 95 88 75 66 68 51 43 39 36 35 38 38 39 37 35 32 31 38 47 51 57 54 57 48 70 94 98 98 98 98 91 79 61 51 44 37 33 31 29 27 26 24 24 26 28 27
89 93 86 89 89 84 71 75 55 45 37 35 38 38 38 38 38 38 35 32 34 46 54 57 58 57 59 50 72 88 92 97 97 98 98 94 84 69 53 43 37 34 32 32 33 33 32 28 27